Spokane meteorite
(Preview)
Meteorite News
0
680
Meteorite hits house! Click to Play | View Details A rock was found in the side of Jerry's house that could very well be a meteorite. This video shows the Q6 News cast of this amazing story and incredible odds of this happening. Spokane Washington.
Tain Chinese lantern
(Preview)
Meteorite News
0
591
[url=http://www.johnogroat-journal.co.uk/news/fullstory.php/aid/8212/UFO_looked__like_a_fire...
Quasar 3C 196
(Preview)
Cosmology News
0
3445
First high-resolution image from the LOFAR radio telescope array Both, the Max-Planck-Institut für Radioastronomie (Bonn) and the Max-Planck-Institut für Astrophysik (Garching), run stations of the International LOFAR telescope (ILT), coordinated by ASTRON, the Netherlands Institute f...
Asteroid 2010 FH81
(Preview)
Solar System
1
502
Orbital elements: 2010 FH81 PHA, Earth MOID = 0.0347 AU Epoch 2010 July 23.0 TT = JDT 2455400.5 MPC M 46.21347 (2000.0) P Q n 0.72717841 Peri. 157.88111 -0.43942605 +0.85098958 a 1.2247348 Node 85.02831 -0.86133778 -0.30829690 e 0.2097434 Incl. 16.78012 -0.25495486 -0.42517026 P 1.36 H 21.6 G 0.1...
Possible supernova in NGC3184
(Preview)
Astronomy News
0
556
A possible magnitude 17.5 supernova was discovered on the 31st May, 2010, in the spiral galaxy NGC3184 in the constellation Ursa Major. The supernova is located 33" East and 61" North from the center of the galaxy. Position (2000): RA 10 18 19.89, Dec +41 26 28.8
Great Comet of 1860
(Preview)
Solar System
0
4180
The magnitude 1.0 Great Comet of 1860, (C/1860 M1, 1860 III), was discovered in the evening twilight of the 18th June, 1860, in the constellation Auriga. Orbit of comet C/1860 M1 (Great Comet of 1860) Comet C/1860 M1 (Great Comet of 1860) is one of a large number of comets with parabolic orbits. [url=h...
Paolo Nespoli Mission Name Competition
(Preview)
Events
0
570
A chance to name Europe's next astronaut mission ESA's Italian astronaut Paolo Nespoli will soon visit the International Space Station, and he needs your help to name his mission. Paolo Nespoli is now in intensive training for his challenging 6-month mission that will start next November. He will...
Timor Sea Crater
(
1 2
)
(Preview)
Meteorite News
13
17108
Australian scientists have discovered a crater deep beneath the Timor Sea made during a heavy meteor storm which may have altered the Earth's climate, the lead researcher said Thursday. Australian National University archaeologist Andrew Glikson said seismic activity led experts to the Mount...
El Paso meteor
(Preview)
Meteorite News
0
591
[url=http://elpallskycamera.us/index.php?option=com_content&view=article&id=53:jagamblesbcglobalnet&catid=1:latest-news&Itemid=50#addcom...
Asteroid 2010 HZ104
(Preview)
Solar System
2
571
Orbital elements: 2010 HZ104 Earth MOID = 0.0197 AU Epoch 2010 July 23.0 TT = JDT 2455400.5 MPC M 18.20513 (2000.0) P Q n 0.30272739 Peri. 165.20546 -0.44272813 +0.83279944 a 2.1966873 Node 77.56145 -0.85335960 -0.27756707 e 0.5525466 Incl. 19.89566 -0.27526206 -0.47895889 P 3.26 H 22.3 G 0.15 U 7...
Hunza Gojal Landslide Lake
(Preview)
Off Topic
2
3470
Authorities in Pakistan are warning of a catastrophe in the north-east of the country as a lake, created by a landslide, threatens to burst. The huge lake is growing in the foothills in the Himalayas, submerging villages and endangering thousands of people. [url=http://news.bbc.co.uk/1/hi/wo...
Asteroid 2009 QJ5
(Preview)
Solar System
2
1136
Orbital Elements Epoch 2009 Aug. 17.0 TT = JDT 2455060.5 MPC M 15.11377 (2000.0) P Q n 0.30607751 Peri. 170.51827 +0.55475885 +0.83195531 T = 2455011.12111 JDT a 2.1806289 Node 133.17512 -0.76421918 +0.51410540 q = 1.8175007 e 0.1665245 Incl. 0.75763 -0.32895542 +0.20867679 Earth MOID = 0.8019...
ZoneAlarm Update
(
1 2
)
(Preview)
Computers
11
2724
ZoneAlarm 5.5.094.000 Update
(its a PC firewall)
Download
(6.65Mb)
Florida ridges' mystery
(Preview)
Off Topic
0
534
Sea level has not been as high as the distinctive ridges that run down the length of Florida for millions of years. Yet recently deposited marine fossils abound in the ridges' sands. Now, a University of Florida geologist may have helped crack that mystery. In a paper appearing June 1 in the June editi...
SDSS J085543.40-001517.7
(Preview)
Cosmology News
0
593
Title: A very bright i=16.44 quasar in the 'redshift desert' discovered by LAMOST Authors: Xue-Bing Wu, Zhaoyu Chen, Zhendong Jia, Wenwen Zuo, Yongheng Zhao, Ali Luo, Zhongrui Bai, Jianjun Chen, Haotong Zhang, Hongliang Yan, Juanjuan Ren, Shiwei Sun, Hong Wu, Yong Zhang, Yeping Li, Qishuai Lu, Y...
«First < 1
1909 1910 1911 1912 1913
2461 > Last» | Page
